Total_Precipitation_Accumulation
0.94 0.84 0.76 0.71 0.63 0.57 0.57 0.61 0.65 0.64 0.63 0.67 0.68 0.62 0.61 0.55 0.48 0.47 0.42 0.37 0.36 0.49 0.76 1.03 1.29 1.58 1.79 1.86 1.87 1.74 1.66 1.52 1.38 1.26 1.21 1.22 1.31 1.39 1.43 1.39 1.44 1.48 1.46
1.05 0.97 0.89 0.86 0.79 0.71 0.66 0.69 0.74 0.75 0.69 0.66 0.63 0.61 0.60 0.55 0.48 0.48 0.48 0.46 0.41 0.42 0.62 0.86 1.11 1.37 1.69 1.97 2.10 2.03 1.85 1.77 1.70 1.60 1.44 1.37 1.38 1.45 1.53 1.57 1.41 1.36 1.33
1.12 0.98 0.92 0.89 0.87 0.87 0.84 0.79 0.76 0.84 0.81 0.73 0.68 0.66 0.65 0.59 0.53 0.53 0.55 0.53 0.50 0.47 0.54 0.74 0.95 1.15 1.41 1.80 2.18 2.34 2.11 1.99 1.99 1.95 1.75 1.60 1.49 1.53 1.55 1.64 1.66 1.56 1.45
1.21 1.15 1.04 0.95 0.94 0.98 0.99 0.97 0.86 0.83 0.83 0.82 0.77 0.74 0.72 0.69 0.61 0.58 0.61 0.58 0.56 0.53 0.51 0.61 0.76 0.93 1.20 1.50 1.83 2.23 2.34 2.23 2.19 2.18 2.06 1.91 1.71 1.64 1.65 1.69 1.79 1.79 1.72
1.19 1.18 1.12 1.09 1.13 1.12 1.08 1.06 0.98 0.95 0.91 0.87 0.87 0.86 0.84 0.83 0.78 0.72 0.72 0.69 0.64 0.59 0.57 0.57 0.65 0.71 0.91 1.21 1.54 1.93 2.26 2.35 2.30 2.27 2.21 2.12 1.97 1.80 1.77 1.81 1.85 1.95 1.98
1.22 1.25 1.18 1.15 1.18 1.20 1.20 1.23 1.20 1.09 1.03 1.03 1.07 1.02 1.00 0.97 0.88 0.77 0.76 0.76 0.71 0.65 0.67 0.67 0.65 0.61 0.69 0.91 1.23 1.60 2.02 2.30 2.41 2.42 2.39 2.35 2.27 2.13 1.96 1.92 1.92 2.02 2.19
1.31 1.35 1.26 1.19 1.20 1.15 1.08 1.06 1.17 1.21 1.14 1.11 1.13 1.07 0.97 0.94 0.87 0.76 0.78 0.86 0.90 0.88 0.85 0.86 0.85 0.74 0.69 0.79 0.92 1.16 1.56 2.03 2.41 2.55 2.53 2.51 2.50 2.46 2.34 2.18 2.13 2.18 2.32
1.37 1.44 1.46 1.33 1.20 1.14 1.09 1.00 0.99 1.08 1.10 1.09 1.15 1.16 1.04 0.95 0.83 0.70 0.70 0.77 0.86 0.96 1.00 0.98 0.99 0.99 0.89 0.80 0.71 0.78 0.99 1.43 2.01 2.54 2.71 2.71 2.82 2.86 2.76 2.56 2.44 2.47 2.57
1.29 1.29 1.40 1.49 1.43 1.28 1.15 1.06 1.01 0.97 1.02 1.01 1.02 1.24 1.24 0.98 0.75 0.60 0.57 0.61 0.66 0.71 0.78 0.83 0.90 0.97 1.01 0.95 0.81 0.70 0.73 1.00 1.49 2.13 2.74 3.01 3.20 3.43 3.40 3.12 2.88 2.77 2.76
1.36 1.31 1.35 1.40 1.44 1.37 1.24 1.16 1.11 1.04 1.01 1.03 0.98 0.96 0.98 0.95 0.99 0.80 0.55 0.52 0.52 0.54 0.59 0.64 0.70 0.76 0.86 0.94 0.95 0.94 0.89 0.90 1.25 1.73 2.38 2.96 3.45 3.91 4.19 3.92 3.49 3.14 2.99
1.44 1.38 1.39 1.39 1.37 1.31 1.24 1.20 1.14 1.10 1.04 1.00 1.00 0.95 0.87 0.78 0.79 0.90 0.69 0.50 0.51 0.49 0.50 0.58 0.63 0.68 0.73 0.81 0.88 0.95 1.01 1.01 1.20 1.51 1.90 2.48 3.11 3.85 4.43 4.48 4.14 3.74 3.41
1.57 1.47 1.43 1.40 1.35 1.27 1.22 1.19 1.16 1.13 1.07 1.01 0.98 0.95 0.94 0.94 0.81 0.84 0.77 0.53 0.49 0.48 0.50 0.56 0.65 0.72 0.79 0.88 0.95 1.13 1.14 1.15 1.25 1.44 1.57 1.94 2.46 3.18 4.06 4.57 4.50 4.25 3.97
1.60 1.49 1.40 1.38 1.37 1.31 1.23 1.20 1.20 1.18 1.16 1.15 1.09 1.01 0.93 0.85 0.82 0.91 0.96 0.74 0.56 0.46 0.48 0.53 0.59 0.71 0.83 0.93 1.00 1.14 1.13 1.14 1.19 1.33 1.39 1.48 1.73 2.29 3.14 4.09 4.62 4.62 4.45
1.64 1.56 1.53 1.49 1.43 1.40 1.40 1.34 1.26 1.21 1.21 1.18 1.12 1.09 1.07 0.93 0.88 0.93 1.05 1.13 1.02 0.69 0.54 0.48 0.48 0.60 0.78 0.90 1.02 1.17 1.08 1.13 1.12 1.22 1.33 1.36 1.41 1.64 2.16 3.01 3.95 4.64 4.73
1.65 1.61 1.56 1.56 1.53 1.53 1.57 1.58 1.47 1.31 1.26 1.19 1.11 1.09 1.11 1.03 0.96 0.92 0.94 1.13 1.44 1.27 0.74 0.48 0.46 0.52 0.68 0.87 1.06 1.08 1.04 1.17 1.21 1.21 1.28 1.35 1.41 1.51 1.74 2.11 2.81 3.72 4.49
1.67 1.64 1.61 1.53 1.49 1.50 1.59 1.68 1.62 1.44 1.37 1.28 1.20 1.14 1.11 1.06 1.03 0.99 0.99 1.02 1.19 1.40 1.09 0.53 0.47 0.51 0.65 0.82 1.02 1.04 1.02 1.18 1.21 1.24 1.23 1.27 1.38 1.48 1.64 1.83 2.16 2.86 3.66
1.66 1.65 1.59 1.55 1.49 1.47 1.51 1.60 1.62 1.59 1.51 1.40 1.34 1.30 1.18 1.11 1.14 1.10 1.08 1.08 1.10 1.28 1.32 0.68 0.50 0.55 0.71 0.84 0.92 0.95 0.98 1.03 1.05 1.18 1.22 1.26 1.26 1.34 1.49 1.67 1.86 2.24 2.91
1.40 1.54 1.62 1.63 1.57 1.47 1.48 1.58 1.59 1.60 1.61 1.54 1.46 1.41 1.31 1.27 1.25 1.19 1.22 1.20 1.12 1.13 1.30 1.04 0.67 0.61 0.69 0.79 0.86 0.95 0.99 1.02 1.03 1.13 1.19 1.25 1.31 1.35 1.42 1.55 1.73 1.89 2.26
1.46 1.47 1.56 1.60 1.59 1.58 1.56 1.55 1.58 1.61 1.62 1.58 1.57 1.59 1.52 1.49 1.45 1.38 1.37 1.36 1.29 1.20 1.25 1.27 0.93 0.74 0.75 0.84 0.98 1.04 1.08 1.15 1.17 1.25 1.27 1.26 1.37 1.45 1.46 1.54 1.68 1.79 1.88
1.64 1.67 1.62 1.61 1.63 1.70 1.88 1.91 1.79 1.74 1.70 1.65 1.63 1.66 1.69 1.70 1.67 1.66 1.71 1.67 1.65 1.65 1.57 1.52 1.26 1.01 0.96 0.96 1.10 1.19 1.20 1.18 1.25 1.27 1.36 1.32 1.38 1.46 1.47 1.48 1.52 1.56 1.68
1.78 1.78 1.79 1.73 1.72 1.86 2.16 2.31 2.12 1.99 1.89 1.80 1.71 1.69 1.70 1.84 2.00 2.15 2.26 2.16 2.07 2.14 2.06 1.96 1.71 1.44 1.26 1.25 1.31 1.26 1.32 1.27 1.32 1.32 1.32 1.27 1.24 1.23 1.30 1.43 1.55 1.61 1.67
1.90 1.88 1.81 1.76 1.69 1.82 2.30 2.44 2.16 1.93 1.79 1.80 1.78 1.68 1.68 1.79 1.88 2.05 2.23 2.21 2.20 2.37 2.45 2.31 2.06 1.77 1.42 1.30 1.38 1.54 1.66 1.73 1.66 1.41 1.40 1.43 1.34 1.35 1.35 1.36 1.57 1.65 1.72
1.79 1.80 1.77 1.71 1.65 1.68 2.18 2.34 2.13 1.75 1.58 1.58 1.57 1.57 1.58 1.62 1.75 1.63 1.81 1.88 1.90 2.01 2.19 2.29 2.31 1.92 1.63 1.50 1.76 1.98 1.99 1.98 1.72 1.51 1.67 1.85 1.68 1.60 1.51 1.57 1.74 1.64 1.71
1.64 1.63 1.58 1.53 1.49 1.58 2.04 2.30 2.13 1.61 1.44 1.42 1.41 1.40 1.41 1.42 1.53 1.71 1.77 1.72 1.58 1.56 1.73 1.88 2.05 1.92 1.82 1.88 2.21 2.54 2.62 2.62 2.28 1.92 1.86 2.15 1.95 1.86 1.77 1.72 1.79 1.69 1.70
1.39 1.44 1.42 1.38 1.36 1.40 1.76 2.13 2.05 1.58 1.53 1.45 1.39 1.40 1.42 1.32 1.55 1.85 1.89 1.81 1.59 1.44 1.52 1.77 1.98 2.09 2.21 2.39 2.67 3.06 3.20 3.27 3.05 2.51 2.18 2.25 2.13 2.03 2.02 1.98 1.93 1.87 1.77
1.24 1.26 1.32 1.33 1.32 1.34 1.58 1.93 2.05 1.65 1.59 1.49 1.42 1.45 1.65 1.61 1.71 1.82 1.79 1.86 1.85 1.53 1.35 1.44 1.56 1.70 1.80 2.01 2.43 2.67 2.91 3.18 3.09 2.86 2.35 2.28 2.31 2.32 2.54 2.20 1.91 1.78 1.75